Weather History for Columbia, MO

Change the Weather History Date:

Thursday, November 29, 2012

  Actual Average Record
Temperature  
Mean Temperature 48 °F 38 °F  
Max Temperature 63 °F 47 °F 76 °F (1933)
Min Temperature 33 °F 29 °F 0 °F (1929)
Degree Days  
Heating Degree Days 17 27  
Month to date heating degree days 557 592  
Since 1 July heating degree days 954 957  
Cooling Degree Days 0 0  
Month to date cooling degree days 3 0  
Year to date cooling degree days 1896 1247  
Moisture  
Dew Point 31 °F    
Average Humidity 61    
Maximum Humidity 82    
Minimum Humidity 39    
Precipitation  
Precipitation 0.00 in 0.10 in 1.60 in (1975)
Month to date precipitation 0.99 3.14  
Year to date precipitation 29.14 40.07  
Snow  
Snow 0.00 in 0.00 in 5.70 in (1974)
Month to date snowfall 0.0 0.8  
Since 1 July snowfall 0.0 0.8  
Since 1 September snowfall 0.0 0.8  
Snow Depth 0.00 in    
Sea Level Pressure  
Sea Level Pressure 30.13 in    
Wind  
Wind Speed 11 mph (South)    
Max Wind Speed 18 mph    
Max Gust Speed 23 mph    
Visibility 10 miles    
Events      
T = Trace of Precipitation, MM = Missing Value Source: NWS Daily Summary

Daily Weather History Graph

Daily Weather History Graph

Search for Another Location

Airport:

Trip Planner

Search our weather history database for the weather conditions in past years. The results will help you decide how hot, cold, wet, or windy it might be!

Date:

Astronomy

Nov. 29, 2012 Rise Set
Actual Time 7:06 AM CST 4:47 PM CST
Civil Twilight 6:37 AM CST 5:17 PM CST
Nautical Twilight 6:04 AM CST 5:50 PM CST
Astronomical Twilight 5:32 AM CST 6:22 PM CST
Moon 5:51 PM CST 7:53 AM CST
Length of Visible Light 10h 39m
Length of Day
9h 41m
Full, 99% of the Moon is Illuminated
Nov 29
Full
Dec 6
Last Quarter
Dec 13
New
Dec 19
First Quarter
Dec 28
Full

Hourly Weather History & Observations

Time (CST) Temp. Windchill Dew Point Humidity Pressure Visibility Wind Dir Wind Speed Gust Speed Precip Events Conditions
12:54 AM 36.0 °F 30.3 °F 25.0 °F 64% 30.25 in 10.0 mi SSE 6.9 mph - N/A   Clear
1:54 AM 35.1 °F 27.9 °F 26.1 °F 70% 30.25 in 10.0 mi SSE 9.2 mph - N/A   Clear
2:54 AM 34.0 °F 26.6 °F 26.1 °F 73% 30.24 in 10.0 mi SSE 9.2 mph - N/A   Clear
3:54 AM 34.0 °F 26.0 °F 26.1 °F 73% 30.23 in 10.0 mi SSE 10.4 mph - N/A   Clear
4:54 AM 34.0 °F 27.2 °F 27.0 °F 75% 30.23 in 10.0 mi SE 8.1 mph - N/A   Clear
5:54 AM 33.1 °F 25.5 °F 27.0 °F 78% 30.22 in 10.0 mi SSE 9.2 mph - N/A   Clear
6:54 AM 34.0 °F 27.2 °F 28.0 °F 79% 30.22 in 10.0 mi SE 8.1 mph - N/A   Clear
7:54 AM 36.0 °F 28.5 °F 30.0 °F 79% 30.20 in 10.0 mi SE 10.4 mph - N/A   Clear
8:54 AM 43.0 °F 36.4 °F 33.1 °F 68% 30.19 in 10.0 mi South 12.7 mph - N/A   Clear
9:54 AM 46.9 °F - 33.1 °F 59% 30.16 in 10.0 mi South 16.1 mph - N/A   Clear
10:54 AM 53.1 °F - 34.0 °F 48% 30.15 in 10.0 mi South 10.4 mph 21.9 mph N/A   Clear
11:54 AM 57.0 °F - 35.1 °F 44% 30.12 in 10.0 mi SSW 15.0 mph - N/A   Clear
12:54 PM 59.0 °F - 36.0 °F 42% 30.09 in 10.0 mi South 11.5 mph 16.1 mph N/A   Clear
1:54 PM 61.0 °F - 37.0 °F 41% 30.07 in 10.0 mi SW 12.7 mph - N/A   Clear
2:54 PM 62.1 °F - 37.0 °F 39% 30.05 in 10.0 mi South 13.8 mph - N/A   Clear
3:54 PM 61.0 °F - 37.9 °F 42% 30.05 in 10.0 mi South 8.1 mph - N/A   Clear
4:54 PM 55.0 °F - 37.9 °F 53% 30.04 in 10.0 mi South 9.2 mph - N/A   Clear
5:54 PM 55.9 °F - 36.0 °F 47% 30.04 in 10.0 mi South 13.8 mph - N/A   Clear
6:54 PM 55.0 °F - 32.0 °F 42% 30.04 in 10.0 mi South 13.8 mph - N/A   Clear
7:54 PM 52.0 °F - 30.9 °F 45% 30.05 in 10.0 mi South 11.5 mph - N/A   Clear
8:54 PM 51.1 °F - 30.9 °F 46% 30.05 in 10.0 mi South 12.7 mph - N/A   Clear
9:54 PM 48.0 °F - 30.0 °F 50% 30.07 in 10.0 mi South 9.2 mph - N/A   Clear
10:54 PM 45.0 °F 41.2 °F 30.0 °F 56% 30.07 in 10.0 mi South 6.9 mph - N/A   Clear
11:54 PM 46.0 °F 41.9 °F 30.0 °F 54% 30.07 in 10.0 mi South 8.1 mph - N/A   Clear